Change the Weather History Date:

Wednesday, March 6, 2013

  Actual Average (KDHN) Record (KDHN)
Temperature  
Mean Temperature 48 °F 57 °F  
Max Temperature 55 °F 69 °F 84 °F (1945)
Min Temperature 41 °F 45 °F 24 °F (1960)
Degree Days  
Heating Degree Days 17 9  
Month to date heating degree days 54  
Since 1 July heating degree days 1613  
Cooling Degree Days 0 1  
Month to date cooling degree days 6  
Year to date cooling degree days 16  
Moisture  
Dew Point 33 °F    
Average Humidity 63    
Maximum Humidity 87    
Minimum Humidity 41    
Precipitation  
Precipitation 0.00 in 0.15 in 4.98 in (1944)
Month to date precipitation 0.91  
Year to date precipitation 10.31  
Sea Level Pressure  
Sea Level Pressure 30.14 in    
Wind  
Wind Speed 5 mph (NW)    
Max Wind Speed 16 mph    
Max Gust Speed 24 mph    
Visibility 10 miles    
Events      
T = Trace of Precipitation, MM = Missing Value Source: NWS Daily Summary

Daily Weather History Graph

Daily Weather History Graph

Search for Another Location

Airport or City:

Trip Planner

Search our weather history database for the weather conditions in past years. The results will help you decide how hot, cold, wet, or windy it might be!

Date:

Astronomy

Mar. 06, 2013 Rise Set
Actual Time 7:00 AM EST 6:41 PM EST
Civil Twilight 6:36 AM EST 7:05 PM EST
Nautical Twilight 6:07 AM EST 7:34 PM EST
Astronomical Twilight 5:39 AM EST 8:02 PM EST
Moon 2:53 AM EST (3/6) 1:37 PM EST (3/6)
Length of Visible Light 12h 29m
Length of Day
11h 41m
Waning Crescent, 30% of the Moon is Illuminated
Mar 6
Waning Crescent
Mar 11
New
Mar 19
First Quarter
Mar 27
Full
Apr 3
Last Quarter

Hourly Weather History & Observations

Time (EST) Temp. Windchill Dew Point Humidity Pressure Visibility Wind Dir Wind Speed Gust Speed Precip Events Conditions
12:15 AM 44.6 °F 41.4 °F 37.4 °F 76% 30.08 in 10.0 mi WNW 5.8 mph - N/A   Clear
12:35 AM 44.6 °F - 37.4 °F 76% 30.07 in 10.0 mi Calm Calm - N/A   Clear
12:55 AM 44.6 °F 42.2 °F 37.4 °F 76% 30.07 in 10.0 mi West 4.6 mph - N/A   Clear
1:15 AM 42.8 °F - 37.4 °F 81% 30.07 in 10.0 mi Calm Calm - N/A   Clear
1:35 AM 42.8 °F - 37.4 °F 81% 30.07 in 10.0 mi Calm Calm - N/A   Clear
1:55 AM 41.0 °F - 37.4 °F 87% 30.07 in 10.0 mi Calm Calm - N/A   Clear
2:15 AM 41.0 °F 39.0 °F 37.4 °F 87% 30.07 in 10.0 mi WSW 3.5 mph - N/A   Clear
2:35 AM 41.0 °F - 37.4 °F 87% 30.07 in 10.0 mi Calm Calm - N/A   Clear
2:55 AM 41.0 °F - 37.4 °F 87% 30.07 in 10.0 mi Calm Calm - N/A   Clear
3:15 AM 41.0 °F 39.0 °F 37.4 °F 87% 30.07 in 10.0 mi West 3.5 mph - N/A   Clear
3:35 AM 41.0 °F - 37.4 °F 87% 30.06 in 10.0 mi Calm Calm - N/A   Clear
3:55 AM 41.0 °F 37.1 °F 37.4 °F 87% 30.06 in 10.0 mi West 5.8 mph - N/A   Clear
4:15 AM 42.8 °F 38.0 °F 37.4 °F 81% 30.06 in 10.0 mi West 8.1 mph - N/A   Clear
4:35 AM 42.8 °F 41.1 °F 37.4 °F 81% 30.06 in 10.0 mi West 3.5 mph - N/A   Clear
4:55 AM 41.0 °F 37.1 °F 37.4 °F 87% 30.07 in 10.0 mi West 5.8 mph - N/A   Clear
5:15 AM 41.0 °F 38.0 °F 35.6 °F 81% 30.07 in 10.0 mi West 4.6 mph - N/A   Clear
5:35 AM 41.0 °F 38.0 °F 35.6 °F 81% 30.09 in 10.0 mi West 4.6 mph - N/A   Clear
5:55 AM 41.0 °F 37.1 °F 33.8 °F 76% 30.09 in 10.0 mi NW 5.8 mph - N/A   Clear
6:15 AM 41.0 °F 35.8 °F 32.0 °F 70% 30.10 in 10.0 mi WNW 8.1 mph - N/A   Clear
6:35 AM 41.0 °F 39.0 °F 32.0 °F 70% 30.12 in 10.0 mi NW 3.5 mph 19.6 mph N/A   Clear
7:15 AM 41.0 °F 36.4 °F 30.2 °F 65% 30.14 in 10.0 mi NW 6.9 mph 17.3 mph N/A   Clear
7:35 AM 41.0 °F 35.8 °F 32.0 °F 70% 30.14 in 10.0 mi NW 8.1 mph - N/A   Clear
7:55 AM 41.0 °F 36.4 °F 32.0 °F 70% 30.15 in 10.0 mi NW 6.9 mph - N/A   Clear
8:15 AM 42.8 °F 38.6 °F 32.0 °F 66% 30.16 in 10.0 mi WNW 6.9 mph - N/A   Clear
8:35 AM 42.8 °F 38.6 °F 30.2 °F 61% 30.17 in 10.0 mi NW 6.9 mph 18.4 mph N/A   Clear
8:55 AM 42.8 °F 37.5 °F 30.2 °F 61% 30.17 in 10.0 mi NW 9.2 mph 17.3 mph N/A   Clear
9:15 AM 42.8 °F 36.2 °F 30.2 °F 61% 30.17 in 10.0 mi WNW 12.7 mph 18.4 mph N/A   Clear
9:35 AM 44.6 °F 40.7 °F 30.2 °F 57% 30.17 in 10.0 mi NW 6.9 mph 16.1 mph N/A   Clear
9:55 AM 44.6 °F 38.8 °F 30.2 °F 57% 30.18 in 10.0 mi NNW 11.5 mph 19.6 mph N/A   Clear
10:15 AM 44.6 °F 38.4 °F 30.2 °F 57% 30.18 in 10.0 mi NNW 12.7 mph 17.3 mph N/A   Clear
10:35 AM 46.4 °F 42.4 °F 30.2 °F 53% 30.17 in 10.0 mi NNW 8.1 mph 17.3 mph N/A   Clear
10:55 AM 46.4 °F 41.9 °F 32.0 °F 57% 30.17 in 10.0 mi WNW 9.2 mph 17.3 mph N/A   Clear
11:15 AM 46.4 °F 40.4 °F 32.0 °F 57% 30.17 in 10.0 mi WNW 13.8 mph 23.0 mph N/A   Clear
11:35 AM 48.2 °F - 30.2 °F 50% 30.17 in 10.0 mi WNW 12.7 mph 21.9 mph N/A   Clear
11:55 AM 48.2 °F - 32.0 °F 54% 30.17 in 10.0 mi NW 12.7 mph 19.6 mph N/A   Clear
12:15 PM 50.0 °F - 30.2 °F 47% 30.17 in 10.0 mi NW 16.1 mph 24.2 mph N/A   Clear
12:35 PM 50.0 °F - 32.0 °F 50% 30.16 in 10.0 mi WNW 13.8 mph 21.9 mph N/A   Clear
12:55 PM 51.8 °F - 32.0 °F 47% 30.15 in 10.0 mi NW 12.7 mph 20.7 mph N/A   Clear
1:15 PM 51.8 °F - 32.0 °F 47% 30.14 in 10.0 mi NW 6.9 mph 20.7 mph N/A   Clear
1:35 PM 51.8 °F - 32.0 °F 47% 30.13 in 10.0 mi NW 9.2 mph 18.4 mph N/A   Clear
1:55 PM 51.8 °F - 32.0 °F 47% 30.13 in 10.0 mi NNW 8.1 mph 18.4 mph N/A   Clear
2:15 PM 53.6 °F - 32.0 °F 44% 30.13 in 10.0 mi WNW 8.1 mph - N/A   Clear
2:35 PM 53.6 °F - 32.0 °F 44% 30.13 in 10.0 mi NW 11.5 mph 17.3 mph N/A   Clear
2:55 PM 53.6 °F - 32.0 °F 44% 30.13 in 10.0 mi NNW 12.7 mph 20.7 mph N/A   Clear
3:15 PM 53.6 °F - 32.0 °F 44% 30.13 in 10.0 mi NNW 11.5 mph 23.0 mph N/A   Clear
3:35 PM 53.6 °F - 32.0 °F 44% 30.13 in 10.0 mi NNW 12.7 mph 17.3 mph N/A   Clear
3:55 PM 53.6 °F - 32.0 °F 44% 30.12 in 10.0 mi NW 9.2 mph - N/A   Clear
4:15 PM 55.4 °F - 32.0 °F 41% 30.13 in 10.0 mi WNW 13.8 mph 19.6 mph N/A   Clear
4:35 PM 53.6 °F - 32.0 °F 44% 30.13 in 10.0 mi NNW 13.8 mph 18.4 mph N/A   Clear
4:55 PM 53.6 °F - 32.0 °F 44% 30.13 in 10.0 mi North 10.4 mph 18.4 mph N/A   Clear
5:15 PM 53.6 °F - 32.0 °F 44% 30.14 in 10.0 mi North 10.4 mph 19.6 mph N/A   Clear
5:35 PM 53.6 °F - 32.0 °F 44% 30.14 in 10.0 mi NNW 9.2 mph - N/A   Clear
5:55 PM 51.8 °F - 32.0 °F 47% 30.14 in 10.0 mi NNW 6.9 mph 17.3 mph N/A   Clear
6:15 PM 51.8 °F - 32.0 °F 47% 30.15 in 10.0 mi NNW 8.1 mph - N/A   Clear
6:35 PM 50.0 °F - 33.8 °F 54% 30.16 in 10.0 mi NNW 11.5 mph - N/A   Clear
6:55 PM 50.0 °F - 32.0 °F 50% 30.17 in 10.0 mi Calm Calm - N/A   Clear
7:15 PM 48.2 °F - 33.8 °F 58% 30.17 in 10.0 mi Calm Calm - N/A   Clear
7:35 PM 48.2 °F - 33.8 °F 58% 30.18 in 10.0 mi Calm Calm - N/A   Clear
7:55 PM 46.4 °F - 33.8 °F 62% 30.18 in 10.0 mi Calm Calm - N/A   Clear
8:15 PM 46.4 °F - 33.8 °F 62% 30.19 in 10.0 mi Calm Calm - N/A   Clear
8:35 PM 46.4 °F - 33.8 °F 62% 30.20 in 10.0 mi Calm Calm - N/A   Clear
8:55 PM 46.4 °F - 33.8 °F 62% 30.20 in 10.0 mi Calm Calm - N/A   Clear
9:35 PM 44.6 °F - 33.8 °F 66% 30.21 in 10.0 mi Calm Calm - N/A   Clear
9:55 PM 44.6 °F 43.1 °F 33.8 °F 66% 30.22 in 10.0 mi NNW 3.5 mph - N/A   Clear
10:15 PM 44.6 °F - 32.0 °F 61% 30.22 in 10.0 mi Calm Calm - N/A   Clear
10:35 PM 42.8 °F - 33.8 °F 70% 30.22 in 10.0 mi Calm Calm - N/A   Clear
10:55 PM 42.8 °F - 33.8 °F 70% 30.22 in 10.0 mi Calm Calm - N/A   Clear
11:15 PM 41.0 °F - 33.8 °F 76% 30.22 in 10.0 mi Calm Calm - N/A   Clear
11:35 PM 41.0 °F - 33.8 °F 76% 30.22 in 10.0 mi Calm Calm - N/A   Clear
11:55 PM 41.0 °F - 33.8 °F 76% 30.22 in 10.0 mi Calm Calm - N/A   Clear